Location: Joffre
(52.3362°N, 113.5373°W)
Time: 12:36:46
(UTC+00:00)

Envisat - Pass Details

Date: 03 December 2021
Orbit: 764 x 766 km, 98.2° (Epoch: 28 January)

Event Time Altitude Azimuth Distance (km) Brightness Sun altitude
Rises 00:45:50 0° 203° (SSW) 3,222 7.0 -11.8°
Reaches altitude 10° 00:48:36 10° 218° (SW) 2,302 6.4 -12.2°
Maximum altitude 00:52:33 23° 270° (W) 1,611 5.6 -12.8°
Drops below altitude 10° 00:56:32 10° 321° (NW) 2,316 5.7 -13.3°
Sets 00:59:21 0° 336° (NNW) 3,248 6.3 -13.7°
